,,,PA_Meas_PMT16A,,PR_Meas_QMR101_102,,RH_Meas_QMH101,,SR_Meas_QMS101,,TA_Meas_QMH101,,GenWind,,GenWind,
date,time,status,PA,status,PR,status,RH,status,SR,status,TA,status,DirAvg,status,SpdAvg,
2010-10-22, 00:00:04,VALID,1003.67,VALID,0,INVALID,150.571,VALID,23.934,VALID,24.0734,VALID,351,VALID,0,
2010-10-22, 00:01:04,VALID,1003.67,VALID,0,INVALID,150.51,VALID,25.3419,VALID,24.0503,VALID,351,VALID,0,
2010-10-22, 00:02:04,VALID,1003.68,VALID,0,INVALID,150.541,VALID,27.2526,VALID,24.091,VALID,351,VALID,0,
2010-10-22, 00:03:04,VALID,1003.7,VALID,0,INVALID,150.609,VALID,28.3588,VALID,24.1105,VALID,351,VALID,0,
2010-10-22, 00:04:04,VALID,1003.71,VALID,0,INVALID,150.609,VALID,28.6604,VALID,24.13,VALID,351,VALID,0,
2010-10-22, 00:05:04,VALID,1003.73,VALID,0,INVALID,150.67,VALID,29.0627,VALID,24.13,VALID,351,VALID,0,
2010-10-22, 00:06:04,VALID,1003.74,VALID,0,INVALID,150.709,VALID,30.0683,VALID,24.13,VALID,351,VALID,0,
2010-10-22, 00:07:04,VALID,1003.76,VALID,0,INVALID,150.731,VALID,31.3756,VALID,24.1513,VALID,351,VALID,0,
2010-10-22, 00:08:04,VALID,1003.8,VALID,0,INVALID,150.876,VALID,32.9846,VALID,24.1494,VALID,351,VALID,0,
2010-10-22, 00:09:04,VALID,1003.83,VALID,0,INVALID,150.991,VALID,34.6942,VALID,24.1494,VALID,351,VALID,0,
2010-10-22, 00:10:04,VALID,1003.84,VALID,0,INVALID,151.059,VALID,36.2027,VALID,24.1494,VALID,351,VALID,0,
2010-10-22, 00:11:04,VALID,1003.86,VALID,0,INVALID,150.976,VALID,37.51,VALID,24.1689,VALID,351,VALID,0,
2010-10-22, 00:12:04,VALID,1003.88,VALID,0,INVALID,150.861,VALID,38.8173,VALID,24.2291,VALID,351,VALID,0,
2010-10-22, 00:13:04,VALID,1003.89,VALID,0,INVALID,150.724,VALID,40.8286,VALID,24.2662,VALID,351,VALID,0,
2010-10-22, 00:14:04,VALID,1003.88,VALID,0,INVALID,150.678,VALID,43.1415,VALID,24.2857,VALID,351,VALID,0,
2010-10-22, 00:15:04,VALID,1003.9,VALID,0,INVALID,150.617,VALID,44.6499,VALID,24.3459,VALID,351,VALID,0,
2010-10-22, 00:16:04,VALID,1003.93,VALID,0,INVALID,150.579,VALID,52.1922,VALID,24.3849,VALID,351,VALID,0,
2010-10-22, 00:17:04,VALID,1003.94,VALID,0,INVALID,150.678,VALID,52.9967,VALID,24.3636,VALID,351,VALID,0,
2010-10-22, 00:18:04,VALID,1003.98,VALID,0,INVALID,150.915,VALID,56.0136,VALID,24.3636,VALID,351,VALID,0,
2010-10-22, 00:19:04,VALID,1003.94,VALID,0,INVALID,151.067,VALID,57.2203,VALID,24.383,VALID,351,VALID,0,
2010-10-22, 00:20:04,VALID,1004,VALID,0,INVALID,151.151,VALID,61.7456,VALID,24.383,VALID,351,VALID,0,
2010-10-22, 00:21:04,VALID,1004,VALID,0,INVALID,151.273,VALID,64.9637,VALID,24.4043,VALID,351,VALID,0,
2010-10-22, 00:22:04,VALID,1004.01,VALID,0,INVALID,151.342,VALID,68.5839,VALID,24.4433,VALID,351,VALID,0,
2010-10-22, 00:23:04,VALID,1004.02,VALID,0,INVALID,151.487,VALID,71.5003,VALID,24.422,VALID,351,VALID,0,
2010-10-22, 00:24:04,VALID,1004.05,VALID,0,INVALID,151.647,VALID,74.6177,VALID,24.4414,VALID,351,VALID,0,
2010-10-22, 00:25:04,VALID,1004.08,VALID,0,INVALID,151.708,VALID,76.9307,VALID,24.4609,VALID,351,VALID,0,
2010-10-22, 00:26:04,VALID,1004.09,VALID,0,INVALID,151.716,VALID,78.0368,VALID,24.4998,VALID,351,VALID,0,
2010-10-22, 00:27:04,VALID,1004.12,VALID,0,INVALID,151.67,VALID,80.3498,VALID,24.5582,VALID,351,VALID,0,
2010-10-22, 00:28:04,VALID,1004.15,VALID,0,INVALID,151.792,VALID,79.2436,VALID,24.5777,VALID,351,VALID,0,
2010-10-22, 00:29:04,VALID,1004.19,VALID,0,INVALID,151.899,VALID,72.3048,VALID,24.6185,VALID,351,VALID,0,
2010-10-22, 00:30:04,VALID,1004.17,VALID,0,INVALID,152.036,VALID,65.9693,VALID,24.6556,VALID,351,VALID,0,
2010-10-22, 00:31:04,VALID,1004.23,VALID,0,INVALID,152.128,VALID,63.5558,VALID,24.6769,VALID,351,VALID,0,
2010-10-22, 00:32:04,VALID,1004.24,VALID,0,INVALID,152.082,VALID,63.2541,VALID,24.714,VALID,351,VALID,0,
2010-10-22, 00:33:04,VALID,1004.26,VALID,0,INVALID,151.96,VALID,66.9749,VALID,24.8132,VALID,351,VALID,0,
2010-10-22, 00:34:04,VALID,1004.29,VALID,0,INVALID,151.883,VALID,64.5614,VALID,24.8716,VALID,351,VALID,0,
2010-10-22, 00:35:04,VALID,1004.28,VALID,0,INVALID,151.914,VALID,66.7738,VALID,24.93,VALID,351,VALID,0,
2010-10-22, 00:36:04,VALID,1004.31,VALID,0,INVALID,151.975,VALID,76.5284,VALID,24.969,VALID,351,VALID,0,
2010-10-22, 00:37:04,VALID,1004.3,VALID,0,INVALID,152.044,VALID,67.9806,VALID,25.0079,VALID,351,VALID,0,
2010-10-22, 00:38:04,VALID,1004.32,VALID,0,INVALID,152.158,VALID,68.0811,VALID,25.0469,VALID,351,VALID,0,
2010-10-22, 00:39:04,VALID,1004.31,VALID,0,INVALID,152.395,VALID,69.0867,VALID,25.0663,VALID,351,VALID,0,
2010-10-22, 00:40:04,VALID,1004.36,VALID,0,INVALID,152.578,VALID,73.2098,VALID,25.0663,VALID,351,VALID,0,
2010-10-22, 00:41:04,VALID,1004.35,VALID,0,INVALID,152.791,VALID,71.7014,VALID,25.0644,VALID,351,VALID,0,
2010-10-22, 00:42:04,VALID,1004.34,VALID,0,INVALID,152.913,VALID,72.1036,VALID,25.1248,VALID,351,VALID,0,
2010-10-22, 00:43:04,VALID,1004.36,VALID,0,INVALID,152.997,VALID,71.6008,VALID,25.1423,VALID,351,VALID,0,
2010-10-22, 00:44:04,VALID,1004.37,VALID,0,INVALID,153.096,VALID,71.5003,VALID,25.1832,VALID,351,VALID,0,
2010-10-22, 00:45:04,VALID,1004.36,VALID,0,INVALID,153.424,VALID,71.2991,VALID,25.2027,VALID,351,VALID,0,
2010-10-22, 00:46:04,VALID,1004.39,VALID,0,INVALID,153.676,VALID,71.1986,VALID,25.2221,VALID,351,VALID,0,
2010-10-22, 00:47:04,VALID,1004.38,VALID,0,INVALID,153.936,VALID,71.8019,VALID,25.2416,VALID,351,VALID,0,
2010-10-22, 00:48:04,VALID,1004.41,VALID,0,INVALID,154.317,VALID,73.3104,VALID,25.2416,VALID,351,VALID,0,
2010-10-22, 00:49:04,VALID,1004.45,VALID,0,INVALID,154.965,VALID,77.9363,VALID,25.2221,VALID,351,VALID,0,
2010-10-22, 00:50:04,VALID,1004.46,VALID,0,INVALID,155.431,VALID,75.3216,VALID,25.2221,VALID,351,VALID,0,
2010-10-22, 00:51:04,VALID,1004.47,VALID,0,INVALID,155.965,VALID,76.0256,VALID,25.2027,VALID,351,VALID,0,
2010-10-22, 00:52:04,VALID,1004.49,VALID,0,INVALID,156.285,VALID,77.4335,VALID,25.2027,VALID,351,VALID,0,
2010-10-22, 00:53:04,VALID,1004.5,VALID,0,INVALID,156.773,VALID,83.6684,VALID,25.2027,VALID,351,VALID,0,
2010-10-22, 00:54:04,VALID,1004.55,VALID,0,INVALID,157.086,VALID,95.5348,VALID,25.224,VALID,350,VALID,0,
2010-10-22, 00:55:04,VALID,1004.53,VALID,0,INVALID,157.185,VALID,111.223,VALID,25.2416,VALID,350,VALID,0,
2010-10-22, 00:56:04,VALID,1004.54,VALID,0,INVALID,157.262,VALID,124.899,VALID,25.3,VALID,350,VALID,0,
2010-10-22, 00:57:04,VALID,1004.6,VALID,0,INVALID,157.353,VALID,151.951,VALID,25.337,VALID,350,VALID,0,
2010-10-22, 00:58:04,VALID,1004.6,VALID,0,INVALID,157.521,VALID,167.437,VALID,25.413,VALID,351,VALID,0,
2010-10-22, 00:59:04,VALID,1004.64,VALID,0,INVALID,157.613,VALID,191.874,VALID,25.4734,VALID,353,VALID,0,
2010-10-22, 01:00:04,VALID,1004.63,VALID,0,INVALID,157.781,VALID,146.118,VALID,25.5707,VALID,353,VALID,0,
2010-10-22, 01:01:04,VALID,1004.67,VALID,0,INVALID,158.208,VALID,151.749,VALID,25.6292,VALID,352,VALID,0,
2010-10-22, 01:02:04,VALID,1004.7,VALID,0,INVALID,158.299,VALID,172.868,VALID,25.7265,VALID,352,VALID,0,
2010-10-22, 01:03:04,VALID,1004.71,VALID,0,INVALID,158.597,VALID,195.695,VALID,25.8044,VALID,352,VALID,0,
2010-10-22, 01:04:04,VALID,1004.74,VALID,0,INVALID,159.192,VALID,209.875,VALID,25.8843,VALID,352,VALID,0,
2010-10-22, 01:05:04,VALID,1004.76,VALID,0,INVALID,159.581,VALID,216.713,VALID,25.9602,VALID,352,VALID,0,
2010-10-22, 01:06:04,VALID,1004.76,VALID,0,INVALID,159.573,VALID,195.796,VALID,26.118,VALID,352,VALID,0,
2010-10-22, 01:07:04,VALID,1004.8,VALID,0,INVALID,160.481,VALID,214.903,VALID,26.1745,VALID,352,VALID,0,
2010-10-22, 01:08:04,VALID,1004.78,VALID,0,INVALID,161.183,VALID,209.674,VALID,26.2524,VALID,352,VALID,0,
2010-10-22, 01:09:04,VALID,1004.79,VALID,0,INVALID,161.839,VALID,208.065,VALID,26.3303,VALID,352,VALID,0,
2010-10-22, 01:10:04,VALID,1004.78,VALID,0,INVALID,162.724,VALID,212.087,VALID,26.4492,VALID,352,VALID,0,
2010-10-22, 01:11:04,VALID,1004.78,VALID,0,INVALID,163.182,VALID,167.538,VALID,26.5661,VALID,352,VALID,0,
2010-10-22, 01:12:04,VALID,1004.76,VALID,0,INVALID,163.434,VALID,152.554,VALID,26.605,VALID,352,VALID,0,
2010-10-22, 01:13:04,VALID,1004.8,VALID,0,INVALID,163.38,VALID,210.076,VALID,26.6614,VALID,352,VALID,0,
2010-10-22, 01:14:04,VALID,1004.82,VALID,0,INVALID,163.403,VALID,229.082,VALID,26.7589,VALID,352,VALID,0,
2010-10-22, 01:15:04,VALID,1004.83,VALID,0,INVALID,163.418,VALID,235.217,VALID,26.8408,VALID,352,VALID,0,
2010-10-22, 01:16:04,VALID,1004.83,VALID,0,INVALID,163.418,VALID,233.306,VALID,26.9167,VALID,352,VALID,0,
2010-10-22, 01:17:04,VALID,1004.81,VALID,0,INVALID,163.395,VALID,238.334,VALID,27.0162,VALID,352,VALID,0,
2010-10-22, 01:18:04,VALID,1004.84,VALID,0,INVALID,163.388,VALID,245.172,VALID,27.1311,VALID,348,VALID,0,
2010-10-22, 01:19:04,VALID,1004.84,VALID,0,INVALID,163.395,VALID,250.201,VALID,27.2869,VALID,337,VALID,0,
2010-10-22, 01:20:04,VALID,1004.84,VALID,0,INVALID,163.372,VALID,262.771,VALID,27.3454,VALID,334,VALID,0,
2010-10-22, 01:21:04,VALID,1004.83,VALID,0,VALID,104,VALID,271.017,VALID,27.5013,VALID,334,VALID,0,
2010-10-22, 01:22:04,VALID,1004.86,VALID,0,VALID,94.4303,VALID,272.827,VALID,27.6377,VALID,336,VALID,0,
2010-10-22, 01:23:04,VALID,1004.85,VALID,0,VALID,91.6152,VALID,269.609,VALID,27.7936,VALID,336,VALID,0,
2010-10-22, 01:24:04,VALID,1004.86,VALID,0,VALID,90.0818,VALID,278.459,VALID,27.9495,VALID,336,VALID,0,
2010-10-22, 01:25:04,VALID,1004.87,VALID,0,VALID,89.5173,VALID,279.565,VALID,28.0859,VALID,336,VALID,0,
2010-10-22, 01:26:04,VALID,1004.89,VALID,0,VALID,87.9915,VALID,282.884,VALID,28.2029,VALID,342,VALID,0,
2010-10-22, 01:27:04,VALID,1004.9,VALID,0,VALID,86.3666,VALID,284.09,VALID,28.244,VALID,343,VALID,0,
2010-10-22, 01:28:04,VALID,1004.9,VALID,0,VALID,85.9927,VALID,288.415,VALID,28.2224,VALID,346,VALID,0,
2010-10-22, 01:29:04,VALID,1004.89,VALID,0,VALID,86.7251,VALID,279.364,VALID,28.2245,VALID,351,VALID,0,
2010-10-22, 01:30:04,VALID,1004.93,VALID,0,VALID,87.3278,VALID,279.666,VALID,28.322,VALID,351,VALID,0,
2010-10-22, 01:31:04,VALID,1004.95,VALID,0,VALID,87.4422,VALID,301.287,VALID,28.3783,VALID,351,VALID,0,
2010-10-22, 01:32:04,VALID,1005,VALID,0,VALID,85.5426,VALID,300.482,VALID,28.4953,VALID,351,VALID,0,
2010-10-22, 01:33:04,VALID,1004.97,VALID,0,VALID,84.322,VALID,306.717,VALID,28.6317,VALID,351,VALID,0,
2010-10-22, 01:34:04,VALID,1005.01,VALID,0,VALID,84.3907,VALID,330.148,VALID,28.7487,VALID,351,VALID,0,
2010-10-22, 01:35:04,VALID,1005.02,VALID,0,VALID,82.6055,VALID,360.317,VALID,28.8072,VALID,351,VALID,0,
2010-10-22, 01:36:04,VALID,1005.03,VALID,0,VALID,81.7358,VALID,368.965,VALID,28.9631,VALID,352,VALID,0,
2010-10-22, 01:37:04,VALID,1005.05,VALID,0,VALID,81.6061,VALID,386.061,VALID,29.0996,VALID,354,VALID,0,
2010-10-22, 01:38:04,VALID,1005.05,VALID,0,VALID,79.1039,VALID,393.201,VALID,29.1386,VALID,145,VALID,0,
2010-10-22, 01:39:04,VALID,1005.07,VALID,0,VALID,79.3251,VALID,410.8,VALID,29.1386,VALID,145,VALID,0,
2010-10-22, 01:40:04,VALID,1005.09,VALID,0,VALID,78.8674,VALID,431.516,VALID,29.1776,VALID,150,VALID,0.699219,
2010-10-22, 01:41:04,VALID,1005.09,VALID,0,VALID,80.0422,VALID,426.689,VALID,29.2383,VALID,151,VALID,0.554688,
2010-10-22, 01:42:04,VALID,1005.09,VALID,0,VALID,78.8521,VALID,431.214,VALID,29.2188,VALID,171,VALID,1.38047,
2010-10-22, 01:43:04,VALID,1005.1,VALID,0,VALID,77.7612,VALID,400.241,VALID,29.1018,VALID,194,VALID,0.6,
2010-10-22, 01:44:04,VALID,1005.09,VALID,0,VALID,77.9672,VALID,454.545,VALID,29.0628,VALID,202,VALID,0.340625,
2010-10-22, 01:45:04,VALID,1005.09,VALID,0,VALID,79.7599,VALID,486.524,VALID,29.0628,VALID,116,VALID,0.707422,
2010-10-22, 01:46:04,VALID,1005.1,VALID,0,VALID,77.9214,VALID,525.743,VALID,29.0801,VALID,86,VALID,0.744922,
2010-10-22, 01:47:04,VALID,1005.09,VALID,0,VALID,78.4401,VALID,192.578,VALID,29.1386,VALID,73,VALID,0.269922,
2010-10-22, 01:48:04,VALID,1005.14,VALID,0,VALID,76.6702,VALID,190.768,VALID,29.1191,VALID,125,VALID,1.0957,
2010-10-22, 01:49:04,VALID,1005.13,VALID,0,VALID,77.0746,VALID,226.568,VALID,28.9848,VALID,126,VALID,0.486719,
2010-10-22, 01:50:04,VALID,1005.15,VALID,0,VALID,78.4401,VALID,329.344,VALID,28.9458,VALID,133,VALID,0.478516,
2010-10-22, 01:51:04,VALID,1005.16,VALID,0,VALID,78.2342,VALID,511.061,VALID,28.9046,VALID,143,VALID,0.793359,
2010-10-22, 01:52:04,VALID,1005.16,VALID,0,VALID,79.9354,VALID,498.088,VALID,28.8678,VALID,145,VALID,1.06016,
2010-10-22, 01:53:04,VALID,1005.14,VALID,0,VALID,78.7911,VALID,494.77,VALID,28.8483,VALID,156,VALID,1.35195,
2010-10-22, 01:54:04,VALID,1005.15,VALID,0,VALID,78.8826,VALID,356.697,VALID,28.8483,VALID,161,VALID,0.465234,
2010-10-22, 01:55:04,VALID,1005.14,VALID,0,VALID,77.3721,VALID,302.493,VALID,28.9458,VALID,185,VALID,0.264062,
2010-10-22, 01:56:04,VALID,1005.14,VALID,0,VALID,80.6068,VALID,239.943,VALID,29.0238,VALID,165,VALID,0.684375,
2010-10-22, 01:57:04,VALID,1005.16,VALID,0,VALID,79.0581,VALID,228.077,VALID,28.9458,VALID,182,VALID,0.669922,
2010-10-22, 01:58:04,VALID,1005.13,VALID,0,VALID,79.3861,VALID,227.976,VALID,28.8483,VALID,200,VALID,0.282813,
2010-10-22, 01:59:04,VALID,1005.16,VALID,0,VALID,80.9348,VALID,315.567,VALID,28.8267,VALID,130,VALID,0.455469,
2010-10-22, 02:00:04,VALID,1005.16,VALID,0,VALID,78.5775,VALID,485.618,VALID,28.8483,VALID,66,VALID,1.07344,
2010-10-22, 02:01:04,VALID,1005.18,VALID,0,VALID,78.5775,VALID,527.151,VALID,28.8873,VALID,114,VALID,1.21602,
2010-10-22, 02:02:04,VALID,1005.19,VALID,0,VALID,76.7465,VALID,500.502,VALID,28.8288,VALID,117,VALID,1.14609,
2010-10-22, 02:03:04,VALID,1005.2,VALID,0,VALID,78.814,VALID,441.371,VALID,28.9068,VALID,116,VALID,0.269141,
2010-10-22, 02:04:04,VALID,1005.22,VALID,0,VALID,76.9983,VALID,433.225,VALID,29.0823,VALID,116,VALID,0.303125,
2010-10-22, 02:05:04,VALID,1005.21,VALID,0,VALID,77.1051,VALID,435.84,VALID,29.2361,VALID,116,VALID,0.223047,
2010-10-22, 02:06:04,VALID,1005.19,VALID,0,VALID,74.7401,VALID,374.798,VALID,29.3943,VALID,99,VALID,0.591016,
2010-10-22, 02:07:04,VALID,1005.21,VALID,0,VALID,74.7096,VALID,463.696,VALID,29.4333,VALID,72,VALID,0.969922,
2010-10-22, 02:08:04,VALID,1005.21,VALID,0,VALID,74.0612,VALID,552.694,VALID,29.3748,VALID,102,VALID,0.769141,
2010-10-22, 02:09:04,VALID,1005.24,VALID,0,VALID,74.9614,VALID,578.136,VALID,29.3943,VALID,100,VALID,0.234766,
2010-10-22, 02:10:04,VALID,1005.24,VALID,0,VALID,73.2296,VALID,532.883,VALID,29.4138,VALID,91,VALID,1.29609,
2010-10-22, 02:11:04,VALID,1005.25,VALID,0,VALID,75.8158,VALID,471.238,VALID,29.4918,VALID,120,VALID,0.946875,
2010-10-22, 02:12:04,VALID,1005.27,VALID,0,VALID,76.3041,VALID,469.428,VALID,29.5503,VALID,125,VALID,1.29102,
2010-10-22, 02:13:04,VALID,1005.26,VALID,0,VALID,73.5577,VALID,502.714,VALID,29.4333,VALID,134,VALID,0.848437,
2010-10-22, 02:14:04,VALID,1005.28,VALID,0,VALID,74.8546,VALID,522.626,VALID,29.4745,VALID,149,VALID,0.520703,
2010-10-22, 02:15:04,VALID,1005.27,VALID,0,VALID,73.6645,VALID,461.886,VALID,29.5915,VALID,149,VALID,0.34375,
2010-10-22, 02:16:04,VALID,1005.28,VALID,0,VALID,71.2232,VALID,529.363,VALID,29.5698,VALID,136,VALID,1.37812,
2010-10-22, 02:17:04,VALID,1005.3,VALID,0,VALID,72.0548,VALID,534.09,VALID,29.5525,VALID,76,VALID,0.758203,
2010-10-22, 02:18:04,VALID,1005.3,VALID,0,VALID,72.7566,VALID,555.007,VALID,29.5698,VALID,81,VALID,1.27227,
2010-10-22, 02:19:04,VALID,1005.32,VALID,0,VALID,72.4133,VALID,517.597,VALID,29.5698,VALID,101,VALID,0.940234,
2010-10-22, 02:20:04,VALID,1005.32,VALID,0,VALID,71.9556,VALID,581.757,VALID,29.5525,VALID,97,VALID,0.842969,
2010-10-22, 02:21:04,VALID,1005.36,VALID,0,VALID,73.2525,VALID,542.135,VALID,29.6695,VALID,133,VALID,1.22695,
2010-10-22, 02:22:04,VALID,1005.34,VALID,0,VALID,72.0853,VALID,531.375,VALID,29.5915,VALID,125,VALID,1.51758,
2010-10-22, 02:23:04,VALID,1005.34,VALID,0,VALID,73.0847,VALID,619.971,VALID,29.572,VALID,145,VALID,1.39258,
2010-10-22, 02:24:04,VALID,1005.34,VALID,0,VALID,73.756,VALID,437.952,VALID,29.6305,VALID,147,VALID,1.48438,
2010-10-22, 02:25:04,VALID,1005.35,VALID,0,VALID,73.2601,VALID,637.167,VALID,29.5503,VALID,146,VALID,1.59727,
2010-10-22, 02:26:04,VALID,1005.32,VALID,0,VALID,74.4884,VALID,414.621,VALID,29.4918,VALID,157,VALID,1.18359,
2010-10-22, 02:27:04,VALID,1005.33,VALID,0,VALID,73.2601,VALID,681.113,VALID,29.533,VALID,123,VALID,1.45625,
2010-10-22, 02:28:04,VALID,1005.29,VALID,0,VALID,73.9467,VALID,667.738,VALID,29.494,VALID,106,VALID,1.10859,
2010-10-22, 02:29:04,VALID,1005.3,VALID,0,VALID,74.7707,VALID,677.191,VALID,29.6695,VALID,127,VALID,0.771875,
2010-10-22, 02:30:04,VALID,1005.28,VALID,0,VALID,70.7197,VALID,644.508,VALID,29.6305,VALID,152,VALID,1.31484,
2010-10-22, 02:31:04,VALID,1005.28,VALID,0,VALID,73.1457,VALID,628.518,VALID,29.6868,VALID,85,VALID,0.716406,
2010-10-22, 02:32:04,VALID,1005.27,VALID,0,VALID,72.1158,VALID,624.295,VALID,29.8428,VALID,137,VALID,0.946484,
2010-10-22, 02:33:04,VALID,1005.3,VALID,0,VALID,72.4438,VALID,612.831,VALID,29.9793,VALID,122,VALID,0.792969,
2010-10-22, 02:34:04,VALID,1005.26,VALID,0,VALID,70.2467,VALID,598.45,VALID,29.9403,VALID,143,VALID,1.53633,
2010-10-22, 02:35:04,VALID,1005.27,VALID,0,VALID,73.3822,VALID,570.192,VALID,29.9793,VALID,144,VALID,1.40273,
2010-10-22, 02:36:04,VALID,1005.27,VALID,0,VALID,71.9251,VALID,526.548,VALID,29.9208,VALID,166,VALID,1.20859,
2010-10-22, 02:37:04,VALID,1005.31,VALID,0,VALID,71.8717,VALID,572.304,VALID,29.8623,VALID,151,VALID,1.16094,
2010-10-22, 02:38:04,VALID,1005.3,VALID,0,VALID,74.9995,VALID,412.107,VALID,29.9013,VALID,126,VALID,1.09766,
2010-10-22, 02:39:04,VALID,1005.3,VALID,0,VALID,70.6968,VALID,360.116,VALID,29.7258,VALID,124,VALID,1.36641,
2010-10-22, 02:40:04,VALID,1005.32,VALID,0,VALID,71.8107,VALID,614.942,VALID,29.5698,VALID,147,VALID,1.31836,
2010-10-22, 02:41:04,VALID,1005.3,VALID,0,VALID,74.2366,VALID,622.183,VALID,29.7063,VALID,132,VALID,0.540234,
2010-10-22, 02:42:04,VALID,1005.29,VALID,0,VALID,69.8729,VALID,616.149,VALID,29.8623,VALID,108,VALID,0.725,
2010-10-22, 02:43:04,VALID,1005.3,VALID,0,VALID,72.3904,VALID,621.077,VALID,29.9403,VALID,116,VALID,1.23789,
2010-10-22, 02:44:04,VALID,1005.33,VALID,0,VALID,70.3688,VALID,636.765,VALID,30.0378,VALID,153,VALID,1.88594,
2010-10-22, 02:45:04,VALID,1005.29,VALID,0,VALID,70.2467,VALID,706.756,VALID,29.9208,VALID,124,VALID,0.649219,
2010-10-22, 02:46:04,VALID,1005.28,VALID,0,VALID,69.1253,VALID,662.106,VALID,30.0011,VALID,131,VALID,0.854688,
2010-10-22, 02:47:04,VALID,1005.3,VALID,0,VALID,70.8799,VALID,527.453,VALID,30.0183,VALID,102,VALID,1.12188,
2010-10-22, 02:48:04,VALID,1005.29,VALID,0,VALID,69.316,VALID,629.524,VALID,29.884,VALID,62,VALID,0.629297,
2010-10-22, 02:49:04,VALID,1005.33,VALID,0,VALID,72.1158,VALID,614.238,VALID,30.0011,VALID,156,VALID,1.11641,
2010-10-22, 02:50:04,VALID,1005.26,VALID,0,VALID,70.262,VALID,569.488,VALID,30.0573,VALID,188,VALID,0.36875,
2010-10-22, 02:51:04,VALID,1005.27,VALID,0,VALID,70.1628,VALID,594.83,VALID,30.1158,VALID,153,VALID,1.71484,
2010-10-22, 02:52:04,VALID,1005.26,VALID,0,VALID,70.1704,VALID,547.465,VALID,30.0183,VALID,132,VALID,1.67422,
2010-10-22, 02:53:04,VALID,1005.27,VALID,0,VALID,69.7814,VALID,494.77,VALID,29.9598,VALID,140,VALID,2.26875,
2010-10-22, 02:54:04,VALID,1005.26,VALID,0,VALID,70.7273,VALID,454.947,VALID,29.7063,VALID,121,VALID,2.60117,
2010-10-22, 02:55:04,VALID,1005.27,VALID,0,VALID,74.1909,VALID,520.614,VALID,29.5698,VALID,123,VALID,1.21172,
2010-10-22, 02:56:04,VALID,1005.24,VALID,0,VALID,72.2455,VALID,551.387,VALID,29.6088,VALID,149,VALID,1.24648,
2010-10-22, 02:57:04,VALID,1005.25,VALID,0,VALID,72.2379,VALID,578.036,VALID,29.7085,VALID,162,VALID,1.42578,
2010-10-22, 02:58:04,VALID,1005.22,VALID,0,VALID,70.8113,VALID,568.382,VALID,29.8038,VALID,167,VALID,1.32461,
2010-10-22, 02:59:04,VALID,1005.2,VALID,0,VALID,72.7185,VALID,582.863,VALID,29.9013,VALID,159,VALID,1.60391,
2010-10-22, 03:00:04,VALID,1005.22,VALID,0,VALID,70.1476,VALID,561.242,VALID,29.8233,VALID,121,VALID,1.9668,
2010-10-22, 03:01:04,VALID,1005.21,VALID,0,VALID,70.796,VALID,534.995,VALID,29.7453,VALID,128,VALID,1.39961,
2010-10-22, 03:02:04,VALID,1005.19,VALID,0,VALID,70.6129,VALID,328.539,VALID,29.7865,VALID,169,VALID,0.878516,
2010-10-22, 03:03:04,VALID,1005.22,VALID,0,VALID,69.9339,VALID,249.195,VALID,29.8645,VALID,142,VALID,0.936719,
2010-10-22, 03:04:04,VALID,1005.21,VALID,0,VALID,70.0026,VALID,329.344,VALID,29.845,VALID,144,VALID,1.02422,
2010-10-22, 03:05:04,VALID,1005.22,VALID,0,VALID,69.049,VALID,560.136,VALID,29.728,VALID,136,VALID,0.812109,
2010-10-22, 03:06:04,VALID,1005.2,VALID,0,VALID,69.316,VALID,420.755,VALID,29.728,VALID,133,VALID,1.10703,
2010-10-22, 03:07:04,VALID,1005.21,VALID,0,VALID,71.9937,VALID,301.89,VALID,29.6673,VALID,98,VALID,1.35234,
2010-10-22, 03:08:04,VALID,1005.21,VALID,0,VALID,71.2995,VALID,500.904,VALID,29.7085,VALID,90,VALID,0.721094,
2010-10-22, 03:09:04,VALID,1005.19,VALID,0,VALID,69.3465,VALID,304.203,VALID,29.767,VALID,88,VALID,1.23594,
2010-10-22, 03:10:04,VALID,1005.2,VALID,0,VALID,71.2766,VALID,236.021,VALID,29.728,VALID,138,VALID,0.810938,
2010-10-22, 03:11:04,VALID,1005.18,VALID,0,VALID,70.8342,VALID,225.563,VALID,29.728,VALID,130,VALID,0.719922,
2010-10-22, 03:12:04,VALID,1005.18,VALID,0,VALID,72.4133,VALID,279.364,VALID,29.7475,VALID,166,VALID,1.16836,
2010-10-22, 03:13:04,VALID,1005.14,VALID,0,VALID,70.6511,VALID,475.26,VALID,29.689,VALID,141,VALID,0.762109,
2010-10-22, 03:14:04,VALID,1005.09,VALID,0,VALID,72.2913,VALID,774.234,VALID,29.7475,VALID,152,VALID,0.782422,
2010-10-22, 03:15:04,VALID,1005.13,VALID,0,VALID,69.7966,VALID,840.304,VALID,29.8233,VALID,166,VALID,1.70234,
2010-10-22, 03:16:04,VALID,1005.06,VALID,0,VALID,70.0789,VALID,782.179,VALID,29.8428,VALID,150,VALID,2.1168,
2010-10-22, 03:17:04,VALID,1005.06,VALID,0,VALID,70.4909,VALID,759.351,VALID,29.884,VALID,144,VALID,2.10977,
2010-10-22, 03:18:04,VALID,1005.08,VALID,0,VALID,71.5055,VALID,780.57,VALID,30.0011,VALID,172,VALID,1.36133,
2010-10-22, 03:19:04,VALID,1005.06,VALID,0,VALID,69.461,VALID,766.39,VALID,30.0378,VALID,128,VALID,1.79727,
2010-10-22, 03:20:04,VALID,1005.03,VALID,0,VALID,71.1698,VALID,696.197,VALID,30.1766,VALID,167,VALID,2.39766,
2010-10-22, 03:21:04,VALID,1005.05,VALID,0,VALID,71.1088,VALID,673.872,VALID,30.1938,VALID,167,VALID,2.16328,
2010-10-22, 03:22:04,VALID,1005.05,VALID,0,VALID,67.9428,VALID,708.969,VALID,30.1961,VALID,152,VALID,2.46172,
2010-10-22, 03:23:04,VALID,1005.06,VALID,0,VALID,68.576,VALID,740.747,VALID,30.0791,VALID,154,VALID,2.05625,
2010-10-22, 03:24:04,VALID,1005.03,VALID,0,VALID,67.6453,VALID,719.226,VALID,29.9988,VALID,186,VALID,3.06016,
2010-10-22, 03:25:04,VALID,1005.05,VALID,0,VALID,69.8195,VALID,696.7,VALID,29.9036,VALID,177,VALID,2.40273,
2010-10-22, 03:26:04,VALID,1005.04,VALID,0,VALID,69.1329,VALID,728.277,VALID,29.9426,VALID,183,VALID,2.41406,
2010-10-22, 03:27:04,VALID,1005.06,VALID,0,VALID,70.4909,VALID,773.53,VALID,29.8818,VALID,162,VALID,1.96094,
2010-10-22, 03:28:04,VALID,1005.03,VALID,0,VALID,70.1857,VALID,768.401,VALID,29.9816,VALID,147,VALID,2.24453,
2010-10-22, 03:29:04,VALID,1005.01,VALID,0,VALID,67.9886,VALID,797.565,VALID,29.884,VALID,139,VALID,2.75039,
2010-10-22, 03:30:04,VALID,1005.02,VALID,0,VALID,71.1088,VALID,769.91,VALID,30.0011,VALID,167,VALID,1.65586,
2010-10-22, 03:31:04,VALID,1005.02,VALID,0,VALID,67.5843,VALID,727.875,VALID,30.1571,VALID,135,VALID,1.93008,
2010-10-22, 03:32:04,VALID,1005.03,VALID,0,VALID,69.377,VALID,769.508,VALID,30.1938,VALID,145,VALID,2.86328,
2010-10-22, 03:33:04,VALID,1005,VALID,0,VALID,69.2168,VALID,732.5,VALID,30.2741,VALID,192,VALID,2.25938,
2010-10-22, 03:34:04,VALID,1005.01,VALID,0,VALID,64.7234,VALID,629.021,VALID,30.2913,VALID,140,VALID,1.80469,
2010-10-22, 03:35:04,VALID,1004.98,VALID,0,VALID,66.3331,VALID,363.233,VALID,30.1376,VALID,115,VALID,1.16836,
2010-10-22, 03:36:04,VALID,1004.97,VALID,0,VALID,67.1799,VALID,318.684,VALID,30.1158,VALID,99,VALID,0.896484,
2010-10-22, 03:37:04,VALID,1004.98,VALID,0,VALID,68.3395,VALID,442.376,VALID,30.1353,VALID,110,VALID,0.631641,
2010-10-22, 03:38:04,VALID,1004.98,VALID,0,VALID,68.0344,VALID,732.601,VALID,30.2936,VALID,155,VALID,0.945703,